Regional Weather Roundup
Issued by NWS

Home | Current Version | Previous Version | Text Only | Print | Product List | Glossary Off
Versions: 1 2 3 4 5 6 7 8 9 10 11 12 13 14 15 16 17 18 19 20 21 22 23 24 25 26 27 28 29 30 31 32 33 34 35 36 37 38 39 40 41 42 43 44 45 46 47 48 49 50

000
ASUS43 KTOP 192159
RWRKS

WEATHER ROUNDUP FOR KANSAS
NATIONAL WEATHER SERVICE GOODLAND KS
500 PM CDT TUE SEP 19 2017

NOTE:  "FAIR" INDICATES FEW OR NO CLOUDS BELOW 12,000 FEET WITH NO
SIGNIFICANT WEATHER AND/OR OBSTRUCTIONS TO VISIBILITY.

KSZ001>006-013>018-027>032-041>047-192300-
NORTHWEST KANSAS

CITY           SKY/WX    TMP DP  RH WIND       PRES   REMARKS
GOODLAND       CLOUDY    90  18   7 SW26G37   29.54F
HAYS           SUNNY    100  44  14 SW31G37   29.52F HX  96
HILL CITY      CLOUDY    97  36  12 S21G32    29.50F
RUSSELL        SUNNY     98  55  23 S26G39    29.52F HX  96
$$

KSZ061>065-074>080-084>089-192300-
SOUTHWEST KANSAS

CITY           SKY/WX    TMP DP  RH WIND       PRES   REMARKS
DODGE CITY     SUNNY     97  27   8 SW33G41   29.60F
ELKHART          N/A     89  38  16 S14         N/A
GARDEN CITY    CLOUDY    93  21   7 SW28G38   29.59F
GREAT BEND     SUNNY     99  57  24 S28G38    29.56F HX  98
LIBERAL        SUNNY     92  33  12 SW29G39   29.65F
$$

KSZ066>073-081>083-090>101-192300-
SOUTHEAST KANSAS

CITY           SKY/WX    TMP DP  RH WIND       PRES   REMARKS
CHANUTE        SUNNY     89  73  59 S17       29.73F HX  97
COFFEYVILLE    SUNNY     89  73  59 S14G22    29.74F HX  97
HUTCHINSON     SUNNY     97  64  33 S29G43    29.60F HX  99
MEDICINE LODGE   N/A     95  60  31 S22G33    29.60F HX  95
NEWTON         SUNNY     94  67  41 S28G39    29.64F HX  97
WICHITA INTL   MOSUNNY   96  66  37 S29G45    29.62F HX  99
WICHITA JABRA  SUNNY     94  67  41 S24G36    29.64F HX  97
WINFIELD       SUNNY     95  67  39 S25G35    29.67F HX  99
$$

KSZ007>012-019>026-033>040-048>060-102>105-192300-
NORTHEAST KANSAS

CITY           SKY/WX    TMP DP  RH WIND       PRES   REMARKS
CONCORDIA      SUNNY     90  68  48 S22G28    29.56F
EMPORIA        SUNNY     89  70  53 S17G26    29.67F
LAWRENCE       SUNNY     88  70  55 SE22G33   29.69F
MANHATTAN      SUNNY     95  68  41 S20G35    29.59F HX  99
OLATHE IND     SUNNY     87  70  56 S21G28    29.73F
OLATHE EXE     SUNNY     85  71  63 S20G28    29.74F
SALINA         SUNNY     98  66  34 S26G40    29.57F HX 101
TOPEKA BILLARD SUNNY     89  70  53 SE23G33   29.66F
TOPEKA FORBES  SUNNY     89  70  53 S20G29    29.67F
$$



USA.gov is the U.S. government's official web portal to all federal, state and local government web resources and services.